STARLINK-1361, 45567

Orbit data source: Space-Track

STARLINK-1361, 45567 is a payload satellite owned by SpaceX/Seattle (US) in LEO that was launched on Wed, 22 Apr 2020 UTC via an FALCON 9 launch vehicle from the Air Force Eastern Test Range (AFETR). Payloads include a variety of satellites, spacecraft, and rockets equipped with specific instruments for various scientific and technological missions. These include communications satellites like Starlink; space stations such as the ISS; scientific satellites like the Hubble; Earth observation satellites from companies like Planet Labs, Umbra, and HawkEye 360; GPS; miniature CubeSats for education and research; and military/defense satellites.

Loading next visibility...
STARLINK-1361 details
Identifier
45567, 2020-025AN
Orbit
LEO
Last TLE update16 hours ago
Origin
Flag of USSpaceX/Seattle (US)
ManufacturerSpaceX/Seattle
MissionOperational Commercial Communications
Bus & MotorSTARLINK, Unknown motor
Mass260 kg wet, ~248 kg dry
Launch date (UTC)
2020-04-22 (5 years ago)
Launch vehicle
FALCON 9
Launch site
Air Force Eastern Test Range (AFETR)
Object type
Payload
Rocket body
Debris
Shape & HBRBox + 1 Pan, 8.86 m
Radar Cross Section13.562 m², Large (>1 m²)

Expand to show TLE details & history

TLE from 16 hours ago
0 STARLINK-1361
1 45567U 20025AN  25037.46832894  .00003628  00000-0  26239-3 0  9991
2 45567  53.0558  65.3216 0001422  93.3945 266.7207 15.06390356265652
Epoch: 2025-02-06T11:14Z
Definitive object data (Epoch: 2025-02-06T11:14:23.62Z)
Latitude0.00001°
Longitude119.87871°
Altitude548.177 km
Speed7.589 km/s
True Right ascension04h 21m 17s
True Declination0° 00' 00"
Sunlit
Object was in daylight at TLE epoch
Visualization TLE readout
Latitude-52.85209°
Longitude17.80477°
Altitude566.561 km
Speed7.577 km/s
Apparent Right ascension19h 01m 11s
Apparent Declination-52° 02' 39"
Sunlit
Object is in daylight
Visualization observer readout
Local Sidereal Time04:53:51
Azimuth230.288° WSW
Elevation-65.055°
Doppler factor1
Orbital elements
Apogee altitude548.496 km
Perigee altitude546.527 km
Semi-major axis6,925.649 km
Eccentricity0.0001422
Inclination53.0558°
RAAN65.3216°
Arg. of periapsis93.3945°
True anomaly266.70443°
Mean anomaly266.7207°
Eccentric anomaly266.71257°
Mean motion3.76576 °/min
BSTAR0.00026239
Orbital period95.6 mins
Loading maneuver chart data...
Loading historical data...
Loading historical data...
Loading historical data...
Loading historical data...
Loading historical data...
Loading historical data...
Loading historical data...

STARLINK-1361 Visibility forecast

Observer location: undefined°, undefined

Span
Click to sort rows by Start time (UTC) header in descending order
Start Az.
Max El. time (UTC)
Max El. Az.
Max El.
End time (UTC)
End Az.
5 mins2025-02-07 03:18:23.958Z175.437° S2025-02-07 03:21:23.958Z126.456° SE19.302°2025-02-07 03:23:23.958Z90.578° ESE
6 mins2025-02-07 04:58:23.958Z255.309° W2025-02-07 05:00:23.958Z315.061° NNW39.369°2025-02-07 05:04:23.958Z42.833° NE
4 mins2025-02-07 06:39:23.958Z319.694° NNW2025-02-07 06:40:23.958Z336.867° NNW16.134°2025-02-07 06:43:23.958Z24.648° NE
5 mins2025-02-07 10:00:23.958Z344.51° N2025-02-07 10:02:23.958Z29.218° NE24.752°2025-02-07 10:05:23.958Z83.011° E
6 mins2025-02-07 11:39:23.958Z295.844° NW2025-02-07 11:42:23.958Z201.368° SSW38.223°2025-02-07 11:45:23.958Z149.322° SSE
|